Tracking 30986 objects as of 9-Jul-2025
HD Live streaming from Space Station
objects crossing your sky now

STARLINK-30193

Track STARLINK-30193 now!
10-day predictions
STARLINK-30193 is classified as:


NORAD ID: 57414
Int'l Code: 2023-102L
Perigee: 565.6 km
Apogee: 566.8 km
Inclination: 43.0 °
Period: 95.8 minutes
Semi major axis: 6937 km
RCS: Unknown
Launch date: July 20, 2023
Source: United States (US)
Launch site: AIR FORCE WESTERN TEST RANGE (AFWTR)
Your satellite tracking list
Your tracking list is empty




NASA's NSSDC Master Catalog

Two Line Element Set (TLE):
1 57414U 23102L   25189.88286837  .00000450  00000-0  48370-4 0  9999
2 57414  43.0012 133.4588 0000849 302.8447  57.2313 15.02533330109561
Source of the keplerian elements: AFSPC